Wind_Speed
23 26 29 31 33 31 11 3 3 4 1 4 2 3 7 2 6 3 5 4 4 4 7 7 4 3 2 7 4 3 3 5 4 2 5 10 5 5 4 4 5 3 2 4
22 26 30 32 31 23 9 2 1 6 2 4 5 6 5 3 2 4 3 4 4 4 5 4 3 3 5 7 3 2 3 3 4 3 2 3 4 8 5 2 2 3 4 4
22 24 29 32 28 19 3 2 4 4 4 1 1 3 5 9 3 3 4 4 5 4 5 6 2 2 2 4 2 4 2 3 5 6 4 5 4 5 5 4 3 3 4 4
20 22 26 30 27 17 2 4 2 2 4 4 8 4 4 7 7 5 5 1 7 4 2 2 2 2 2 1 3 3 4 3 2 2 4 4 5 4 7 4 4 5 1 3
18 20 24 28 28 12 8 3 2 3 3 8 5 5 4 6 6 3 6 3 8 6 3 2 3 1 2 1 1 1 3 2 3 2 3 3 3 6 7 5 4 4 4 4
16 18 19 23 25 14 6 5 1 2 4 4 2 1 2 6 8 6 0 3 4 2 2 5 5 2 2 2 2 1 2 4 3 2 2 0 5 9 9 5 5 6 5 7
15 16 16 18 20 14 6 6 4 3 3 1 1 4 6 9 9 5 9 4 3 2 5 6 2 1 2 4 3 1 2 3 2 2 2 1 5 1 8 9 7 8 4 4
13 14 14 12 13 12 7 7 3 1 4 3 6 4 1 7 10 3 2 0 3 3 3 1 1 2 2 3 2 4 2 2 1 3 2 4 2 3 5 7 6 7 7 5
12 13 12 11 8 9 6 1 5 2 3 4 4 3 4 2 3 6 2 2 3 1 1 1 1 3 3 3 1 1 3 3 3 2 1 3 2 2 1 3 3 5 8 7
13 14 12 10 9 7 6 2 4 1 4 4 5 2 3 3 2 3 3 4 3 2 0 1 3 3 2 3 3 4 1 1 3 2 2 5 1 3 3 3 3 2 5 5
19 18 14 9 8 6 6 4 4 2 3 7 6 5 3 4 2 2 4 3 2 1 1 2 2 1 2 1 4 5 5 4 3 3 3 5 4 2 2 3 3 4 3 2
21 21 18 13 9 5 6 4 2 7 5 7 25 29 29 18 9 3 3 3 2 2 2 0 1 1 0 3 2 1 2 5 4 6 4 4 5 2 3 3 4 3 4 3
25 25 25 17 10 6 8 11 10 7 3 7 5 5 7 13 20 25 3 3 3 1 1 1 2 2 2 2 3 2 2 3 1 3 1 5 6 2 2 2 3 4 3 4
23 23 23 16 11 5 6 11 12 8 4 3 5 8 5 9 15 14 24 12 5 4 2 1 2 2 2 2 2 3 4 3 3 3 5 2 4 4 5 5 4 3 1 1
19 20 19 18 11 5 10 13 18 16 4 3 6 22 18 6 10 24 19 18 8 2 3 2 3 2 1 1 1 2 4 5 3 4 2 3 1 4 4 5 4 3 2 4
16 19 16 18 8 5 4 3 5 2 7 3 5 6 6 18 10 11 14 11 3 2 3 3 3 3 2 2 3 5 3 4 5 4 3 3 6 5 2 4 3 2 2 3
17 13 14 9 6 9 3 2 2 2 3 2 4 4 4 6 3 1 2 9 3 3 3 3 2 3 0 1 3 4 5 6 6 7 6 3 1 4 4 4 2 1 3 4
4 13 10 8 6 6 7 15 16 8 0 3 3 4 4 4 1 3 4 4 3 3 2 2 3 1 3 4 6 9 4 6 4 5 3 5 6 4 4 3 2 3 3 4
14 13 10 6 2 1 4 5 3 15 2 2 2 2 3 3 1 2 2 3 3 3 4 3 2 3 4 6 6 2 3 4 7 5 6 5 4 3 2 1 4 3 3 4
14 6 3 2 2 2 5 2 1 1 2 3 3 2 3 2 2 1 2 2 2 3 4 3 3 3 3 2 4 5 6 6 5 4 2 2 3 3 2 2 1 2 2 3
3 2 2 3 2 2 1 0 2 2 3 3 3 4 4 2 3 2 2 1 2 2 2 4 2 3 1 5 6 5 5 5 5 5 4 4 3 2 3 3 2 4 5 4
5 8 5 2 1 1 2 2 2 4 3 2 2 3 4 3 3 2 2 2 1 2 3 2 2 1 3 4 4 4 5 6 6 7 5 5 4 4 4 4 4 6 8 9
7 3 2 1 1 1 3 2 3 2 1 2 3 4 2 2 2 3 2 2 1 1 1 2 2 1 2 4 4 5 6 8 7 6 5 4 4 5 5 5 6 9 9 9
2 3 2 4 3 4 3 1 1 2 4 6 5 4 2 2 1 1 2 1 1 2 2 3 1 3 5 4 3 5 5 5 5 5 5 6 6 6 7 7 8 9 9 11
2 3 4 4 3 1 2 1 1 2 3 5 3 3 2 2 2 1 1 2 2 2 1 1 2 2 4 4 3 4 4 3 3 2 2 3 4 4 5 7 7 10 10 11
1 3 3 2 2 3 0 1 2 2 3 4 2 2 2 2 2 1 2 2 2 2 3 2 1 2 3 3 4 4 4 3 2 2 3 4 5 6 7 5 9 11 10 11
1 3 2 1 1 2 2 2 2 2 2 2 2 3 2 3 2 2 1 2 2 2 3 2 1 3 4 3 3 5 5 4 2 0 2 3 6 5 5 5 11 12 10 11
Wind_Direction
355 356 355 355 355 357 12 19 49 352 316 43 350 4 320 271 297 155 246 240 266 331 6 17 75 79 48 345 330 52 39 118 117 176 184 169 168 179 192 142 205 198 180 268
357 358 358 357 357 4 338 33 314 6 301 66 15 305 294 248 288 311 313 319 328 319 355 65 78 58 355 359 40 128 169 113 102 99 55 235 216 176 229 173 68 209 161 263
360 0 360 4 5 5 9 62 25 328 5 180 201 310 303 345 259 269 322 288 321 336 34 30 83 99 342 343 43 314 122 84 150 180 181 139 185 194 163 146 130 190 207 134
2 0 3 8 12 9 40 30 67 103 331 323 321 22 345 351 7 331 337 77 10 325 337 58 90 122 213 279 311 5 99 125 119 110 111 125 187 192 172 150 209 151 247 137
359 1 5 8 15 19 65 86 31 344 264 293 298 40 9 319 344 293 342 21 338 33 59 17 300 315 11 176 295 34 22 148 102 327 160 163 199 222 189 206 234 266 270 283
354 360 5 12 19 33 57 7 324 190 265 305 305 54 307 297 306 283 357 318 321 47 294 306 284 279 134 86 141 177 105 129 109 251 197 21 299 218 198 190 192 162 194 220
347 352 2 11 20 36 48 17 331 336 275 268 304 326 294 301 318 288 286 353 328 247 321 315 276 356 81 62 21 99 137 138 127 190 66 269 241 147 199 180 201 206 237 221
334 342 351 3 11 31 45 15 11 345 283 266 281 325 310 310 307 285 255 318 220 309 320 332 193 223 230 142 69 20 80 123 113 135 212 277 238 228 157 166 245 204 203 185
321 324 330 344 352 11 40 34 4 329 306 254 330 268 257 245 301 317 208 247 247 308 79 328 232 225 210 203 188 31 20 68 123 140 147 226 220 197 113 101 220 290 172 188
296 310 313 324 335 341 354 289 345 44 287 285 346 329 317 315 334 272 302 334 317 54 102 181 220 234 155 175 188 160 185 297 149 269 233 287 211 150 71 180 211 109 122 149
296 289 290 303 311 305 295 294 260 117 238 281 267 299 301 307 279 261 342 336 312 356 164 179 252 244 221 67 161 164 172 168 187 217 238 275 145 99 202 188 101 115 96 84
287 287 275 274 276 279 272 263 277 280 211 255 280 275 270 263 262 310 288 301 308 260 226 278 307 271 74 183 227 7 210 184 189 173 215 228 184 162 145 142 148 137 133 132
286 281 273 266 247 249 248 282 302 295 272 279 261 259 279 257 233 239 246 270 330 36 333 221 258 258 129 195 245 230 269 175 176 40 284 197 169 117 94 92 125 116 121 141
298 291 275 230 240 251 258 276 289 278 292 282 276 329 312 266 285 250 218 259 343 317 297 282 254 224 150 219 205 146 217 107 194 262 292 233 234 152 149 108 94 97 57 254
300 296 286 235 206 221 251 271 277 269 235 286 292 301 289 291 278 247 229 228 237 324 322 243 237 247 119 302 73 233 187 194 164 224 245 145 164 143 129 110 105 75 26 332
302 301 287 202 180 181 283 334 35 233 225 303 298 308 293 301 296 234 189 196 175 215 214 213 283 276 138 202 213 247 218 199 174 179 142 117 137 127 106 112 93 52 349 308
306 301 195 150 160 198 204 202 151 319 250 277 291 298 275 309 107 117 135 180 188 184 225 234 227 283 61 261 217 260 229 192 155 152 123 130 94 161 115 116 99 40 320 296
180 149 155 157 182 248 252 252 255 217 198 266 286 277 306 14 229 174 190 167 178 192 234 259 204 248 197 242 230 241 249 214 151 151 99 126 130 107 96 92 51 15 336 313
153 142 144 116 139 242 298 301 238 202 194 268 248 267 297 353 319 265 143 183 169 231 203 220 187 211 220 222 223 194 155 144 152 98 92 87 87 87 79 75 46 36 345 345
154 127 95 87 192 192 138 78 118 275 218 209 255 270 278 339 285 297 203 245 214 198 229 176 227 250 233 58 66 108 113 107 124 127 131 81 88 56 21 27 345 298 300 323
193 105 106 94 159 162 294 167 187 194 256 220 234 229 240 266 245 279 235 197 182 233 177 192 235 258 147 92 87 82 85 86 72 95 99 71 51 3 336 336 341 322 316 300
144 115 115 113 184 214 253 229 187 204 245 224 238 271 212 249 235 232 242 241 205 205 133 216 255 280 108 113 106 94 90 91 85 69 66 37 13 350 324 319 328 329 315 307
108 78 110 187 163 230 196 218 268 260 286 329 296 310 295 294 183 231 236 228 213 85 142 235 236 184 125 135 120 90 76 79 74 61 59 54 25 13 3 342 342 330 322 317
108 130 141 193 213 239 196 259 43 322 288 316 305 296 282 280 276 280 265 66 141 178 231 237 271 186 146 120 98 110 100 95 97 80 52 40 26 14 11 3 350 339 335 329
170 173 219 219 221 268 191 154 260 268 285 298 293 290 251 288 302 305 276 203 247 235 268 339 351 123 139 145 134 127 121 121 107 76 32 8 6 355 353 354 353 357 344 343
13 231 240 260 75 305 254 258 246 237 291 296 238 279 273 256 290 349 247 334 347 26 324 305 344 135 155 158 145 141 134 94 45 337 355 3 4 344 328 352 3 360 0 353
128 272 236 170 261 202 287 277 270 298 312 301 306 274 263 309 290 291 59 27 347 316 305 298 279 175 178 153 144 159 174 181 184 350 360 348 350 0 20 8 357 360 2 358
Height
812 806 800 792 785 775 772 770 782 773 772 781 781 775 768 760 755 756 755 759 744 739 737 739 741 745 741 736 734 735 737 754 767 768 765 767 767 770 768 789 787 784 799 767
812 806 801 794 788 784 780 782 780 774 774 795 778 774 765 760 756 753 748 747 741 737 739 745 740 744 741 738 738 741 740 761 774 771 769 765 766 764 762 768 775 778 780 770
813 808 801 794 789 786 783 784 793 784 777 777 777 774 768 759 754 754 747 745 742 740 740 740 743 745 742 739 739 738 737 752 770 775 757 765 777 760 765 780 795 774 776 760
814 810 804 796 790 786 786 791 796 797 796 787 776 770 766 762 761 753 748 744 748 746 744 743 746 744 744 740 737 736 743 764 756 751 750 754 761 758 767 784 763 774 754 752
815 810 805 798 792 789 791 799 801 798 796 788 774 776 772 767 762 760 755 754 751 751 753 752 751 741 743 741 740 739 744 765 760 777 750 752 757 755 760 760 757 759 757 752
816 812 808 804 798 793 797 799 797 796 787 780 770 773 774 770 766 756 753 753 753 751 751 750 749 743 743 741 742 745 747 761 774 779 752 754 768 755 755 757 755 754 760 749
816 814 810 808 804 801 804 807 806 803 791 783 776 776 774 766 764 762 753 752 750 750 747 746 742 741 740 741 742 744 747 753 761 773 757 769 743 737 739 746 746 750 745 743
817 815 811 806 806 804 804 806 806 805 804 786 775 772 768 769 763 753 749 751 750 748 747 747 746 747 743 743 744 747 747 751 759 770 771 749 741 741 742 744 746 741 744 742
815 813 810 806 807 804 801 801 803 805 804 791 780 772 768 770 767 763 747 749 748 747 750 748 751 751 740 745 743 742 746 753 765 764 773 755 736 734 732 733 741 736 738 740
812 811 809 807 807 806 803 801 803 805 805 791 786 777 775 767 765 766 756 751 751 748 752 755 756 744 737 746 746 751 755 757 770 766 774 749 734 734 733 742 746 734 736 739
810 809 807 805 804 804 804 800 800 801 802 789 784 779 776 771 770 767 762 753 756 756 756 757 749 750 739 744 742 749 751 749 750 748 748 763 735 736 739 736 734 734 736 738
804 804 803 801 800 801 802 800 797 798 796 786 780 777 777 774 773 774 769 759 754 750 752 754 751 744 747 749 740 739 748 746 745 750 749 735 735 732 732 734 736 737 738 739
798 799 798 797 797 797 799 800 798 795 791 779 773 767 764 765 764 769 774 762 755 752 754 756 752 747 745 748 748 739 737 736 742 740 733 733 732 732 732 733 736 738 739 740
793 793 793 789 794 794 796 798 796 797 790 782 769 762 762 761 762 763 764 762 761 760 755 754 754 748 741 745 740 745 740 736 739 740 734 732 731 733 735 737 738 739 740 741
786 787 787 786 788 789 790 789 788 793 795 787 772 760 750 750 751 755 758 761 764 763 759 751 751 746 743 744 744 744 737 737 741 741 733 734 737 737 737 738 740 741 742 742
783 780 781 782 784 787 790 789 786 790 786 787 776 758 749 745 745 748 750 756 762 763 758 751 744 737 739 749 748 731 728 728 729 732 731 733 736 738 738 740 741 742 742 742
778 775 777 782 783 786 790 788 787 789 791 789 779 766 751 743 743 749 751 753 755 757 755 748 746 744 739 740 742 726 724 723 726 728 731 734 736 739 739 740 741 742 742 742
776 776 778 780 783 785 784 783 785 784 787 792 789 778 758 747 742 746 746 747 751 748 747 744 742 742 741 739 728 721 722 724 726 729 729 732 736 738 739 741 742 742 743 742
776 775 775 778 782 785 787 783 783 786 788 785 781 780 765 749 744 744 743 744 747 744 741 739 739 735 736 725 723 719 723 724 728 733 735 736 737 739 740 740 742 743 744 743
776 776 777 779 781 784 782 782 785 788 787 783 779 772 768 758 746 744 745 742 741 738 740 735 734 733 721 724 726 727 729 730 730 733 735 738 739 741 742 742 742 742 743 742
777 775 777 781 782 784 784 780 781 784 785 778 770 767 763 757 748 741 743 739 738 732 729 730 731 728 725 732 733 733 733 732 734 735 738 740 741 742 742 741 741 741 740 740
775 777 778 783 784 784 783 777 778 778 775 765 763 756 756 751 745 743 740 735 738 726 730 729 729 725 735 735 736 736 735 735 737 738 740 742 743 743 743 742 740 740 739 738
775 779 782 784 783 785 776 784 779 772 765 763 760 755 750 746 745 741 737 732 730 734 730 729 729 733 736 738 737 738 737 738 740 742 744 744 744 743 742 741 740 739 738 736
779 785 791 782 786 779 773 763 768 771 767 763 760 754 750 744 740 738 731 733 735 733 730 736 732 731 736 738 739 739 741 742 744 745 745 745 745 744 743 743 741 740 737 736
776 778 781 783 773 774 769 770 771 770 767 763 758 755 749 744 741 738 736 730 733 729 726 729 733 734 736 740 740 741 743 744 745 746 745 745 745 745 744 743 741 739 737 735
779 775 774 772 777 779 773 769 770 767 766 763 759 753 747 744 742 745 743 734 725 732 736 740 739 738 740 740 741 743 744 745 746 745 745 745 745 744 743 742 741 739 737 735
783 784 773 776 775 773 769 765 766 766 766 762 763 753 745 749 746 745 743 736 739 743 743 743 740 740 742 742 743 744 745 745 745 745 744 745 744 742 742 741 740 738 737 735